ギブス彗星

P/2012 K3 ( Gibbs )

English version
Home page
Updated on February 3, 2013

---------------------------------------------------------------------

・ プロフィール

発見日 2012年5月21日
発見光度 18.3等
発見者 A. R. Gibbs (Mount Lemmon)

・ 写真集

・ 軌道要素

Epoch 2012 Sept. 30.0 TT = JDT 2456200.5
T 2012 Sept. 30.33753 TT                                MPC
q   2.0768620            (2000.0)            P               Q
n   0.14326381     Peri.  172.30311     +0.47516421     +0.86021981
a   3.6172488      Node   125.88035     -0.81896890     +0.50926606
e   0.4258449      Incl.   13.20169     -0.32172802     -0.02588334
P   6.88
From 130 observations 2012 May 21-Sept. 9, mean residual 0".5.

・ 光度変化

        m1 = 14.0 + 5 logΔ + 10.0 log r

---------------------------------------------------------------------

軌道要素はM.P.E.C. 2012-R16に掲載されたものです。
光度グラフはComet for Windowsで作成したものです。

---------------------------------------------------------------------

Copyright(C) Seiichi Yoshida (comet@aerith.net). All rights reserved.